Location: Nassau
(25.0830°N, 77.3500°W)
Time: 15:41:12
(UTC-04:00)

ISS - All Passes

Search period start: 21 August 2017 00:00
Search period end: 31 August 2017 00:00
Orbit: 401 x 408 km, 51.6° (Epoch: 22 August)

Date Brightness Start Highest point End Pass type
(mag) Time Alt. Az. Time Alt. Az. Time Alt. Az.
21 Aug - 09:29:22 10° SW 09:32:38 71° NW 09:35:54 10° NE daylight
21 Aug - 17:40:25 10° NNW 17:43:10 25° NE 17:45:55 10° ESE daylight
21 Aug - 19:17:32 10° W 19:19:26 15° SW 19:21:20 10° SSW daylight
22 Aug - 08:37:18 10° SSW 08:40:25 42° SE 08:43:32 10° NE daylight
22 Aug - 10:15:59 10° WNW 10:17:01 11° NW 10:18:03 10° NNW daylight
22 Aug - 16:49:16 10° NNE 16:50:46 13° NE 16:52:16 10° ENE daylight
22 Aug - 18:24:19 10° WNW 18:27:18 34° SW 18:30:17 10° SSE daylight
23 Aug - 07:45:59 10° S 07:48:16 18° SE 07:50:33 10° E daylight
23 Aug - 09:21:57 10° W 09:24:35 22° NW 09:27:13 10° N daylight
23 Aug - 17:31:51 10° NW 17:35:06 86° NE 17:38:21 10° SE daylight
24 Aug - 08:29:03 10° SW 08:32:14 50° NW 08:35:26 10° NNE daylight
24 Aug - 16:39:49 10° NNW 16:42:48 33° NE 16:45:47 10° ESE daylight
24 Aug - 18:18:05 10° WSW 18:18:58 11° SW 18:19:52 10° SW daylight
25 Aug - 07:36:45 10° SSW 07:39:58 60° SE 07:43:13 10° NE daylight
25 Aug - 15:48:18 10° N 15:50:24 16° NE 15:52:30 10° E daylight
25 Aug - 17:24:05 10° WNW 17:26:50 25° SW 17:29:34 10° S daylight
26 Aug - 06:45:04 10° S 06:47:45 24° SE 06:50:28 10° ENE daylight
26 Aug - 08:21:54 10° W 08:24:11 17° NW 08:26:27 10° N daylight
26 Aug - 16:31:23 10° NW 16:34:37 67° SW 16:37:50 10° SSE daylight
27 Aug - 05:55:16 10° SE 05:55:36 10° SE 05:55:56 10° ESE visible
27 Aug - 07:28:42 10° WSW 07:31:45 36° NW 07:34:49 10° NNE daylight
27 Aug - 15:39:10 10° NNW 15:42:18 45° NE 15:45:26 10° ESE daylight
28 Aug - 06:36:08 10° SW 06:39:25 86° SE 06:42:42 10° NE daylight
28 Aug - 14:47:24 10° N 14:49:55 20° NE 14:52:25 10° E daylight
28 Aug - 16:23:51 10° WNW 16:26:15 19° SW 16:28:37 10° S daylight
29 Aug - 05:44:11 10° SSW 05:47:09 32° SE 05:50:07 10° ENE visible
29 Aug - 07:21:54 10° WNW 07:23:39 14° NW 07:25:25 10° N daylight
29 Aug - 13:56:55 10° NNE 13:57:22 10° NE 13:57:51 10° NE daylight
29 Aug - 15:30:52 10° NW 15:34:00 46° SW 15:37:08 10° SSE daylight
30 Aug - 04:53:11 10° SSE 04:54:56 14° SE 04:56:41 10° E visible
30 Aug - 06:28:18 10° WSW 06:31:10 27° NW 06:34:02 10° NNE visible
30 Aug - 14:38:28 10° NW 14:41:42 63° NE 14:44:54 10° SE daylight
